Location: Summit Observatory
(39.5293°N, 75.7290°W)
Time: 02:57:59
(UTC-05:00)

XW-2F - Pass Details

Date: 22 October 2019
Orbit: 503 x 524 km, 97.5° (Epoch: 20 November)

Event Time Altitude Azimuth Distance (km) Brightness Sun altitude
Rises 18:41:32 0° 180° (S) 2,616 ? -6.0°
Reaches altitude 10° 18:43:41 10° 187° (S) 1,731 ? -6.4°
Maximum altitude 18:47:15 45° 261° (W) 710 ? -7.1°
Drops below altitude 10° 18:50:51 10° 335° (NNW) 1,733 ? -7.8°
Sets 18:53:01 0° 342° (NNW) 2,620 ? -8.2°
